This is the latest recevied weather packets stored in our database for station/object IK3SVW-3. If no packets are shown the sender has not sent any weather packets the latest 10 day(s).
| Time | Temp. | Humidity | Pressure | Rain* | Wind** | Luminosity | Snow |
|---|---|---|---|---|---|---|---|
| 1777491465 | 15.56° C | 61% | 1018 hPa | 0 mm | - | - | - |
| 1777489487 | 16.11° C | 56% | 1018 hPa | 0 mm | - | - | - |
| 1777489013 | 16.11° C | 55% | 1018 hPa | 0 mm | - | - | - |
| 1777488343 | 16.11° C | 53% | 1018 hPa | 0 mm | - | - | - |
| 1777486545 | 16.67° C | 50% | 1017 hPa | 0 mm | - | - | - |
| 1777483667 | 16.67° C | 47% | 1017 hPa | 0 mm | - | - | - |
| 1777483005 | 17.22° C | 48% | 1017 hPa | 0 mm | - | - | - |
| 1777482344 | 17.22° C | 49% | 1017 hPa | 0 mm | - | - | - |
| 1777481325 | 17.78° C | 49% | 1016 hPa | 0 mm | - | - | - |
| 1777481143 | 17.78° C | 50% | 1017 hPa | 0 mm | - | - | - |
| 1777480244 | 17.78° C | 50% | 1016 hPa | 0 mm | - | - | - |
| 1777477723 | 18.33° C | 49% | 1017 hPa | 0 mm | - | - | - |
| 1777477064 | 18.33° C | 49% | 1017 hPa | 0 mm | - | - | - |
| 1777475745 | 18.33° C | 49% | 1017 hPa | 0 mm | - | - | - |
| 1777475087 | 18.89° C | 49% | 1017 hPa | 0 mm | - | - | - |
| 1777474363 | 18.89° C | 47% | 1017 hPa | 0 mm | - | - | - |
| 1777473705 | 18.89° C | 47% | 1017 hPa | 0 mm | - | - | - |
| 1777473044 | 19.44° C | 46% | 1017 hPa | 0 mm | - | - | - |
| 1777472179 | 20° C | 44% | 1016 hPa | 0 mm | - | - | - |
| 1777472144 | 20° C | 44% | 1016 hPa | 0 mm | - | - | - |
| 1777471486 | 20° C | 43% | 1016 hPa | 0 mm | - | - | - |
| 1777471186 | 20.56° C | 43% | 1016 hPa | 0 mm | - | - | - |
| 1777470524 | 20.56° C | 42% | 1016 hPa | 0 mm | - | - | - |
| 1777469864 | 21.11° C | 42% | 1016 hPa | 0 mm | - | - | - |
| 1777469204 | 21.11° C | 41% | 1016 hPa | 0 mm | - | - | - |
* Rain latest hour (hover to see other rain measurements)
** Current wind speed in m/s (hover to see current wind gust speed)